Weather in Broshniv-Osada

Ukraine / Ivano-Frankovsk District     48˚59′45″N   24˚11′17″E
temp.,
°C
wind,
m/s
gust,
m/s
humid.,
%
clouds,
%
prec.,
mm/h
press.,
hPa
HPBL,
m
3 december, thu
thu323:00−5˚ese36920 0.0 1023144
02:00−5˚se248713 0.0 102286
05:00−6˚se348636 0.0 102091
08:00−6˚se348618 0.0 101999
11:00−2˚ese476811 0.0 1018227
14:00+1˚se586151 0.0 1016296
17:00−1˚se597984 0.0 1015222
20:00−2˚se488878 0.0 1015184
4 december, fri
fri423:00−2˚se599036 0.0 1014226
02:00−2˚ese499362 0.0 1014207
05:00−3˚se599326 0.0 1012227
08:00−3˚ese489442 0.0 1012221
11:00+1˚ese46756 0.0 1012206
14:00+4˚se48653 0.0 1010280
17:00+1˚se23800 0.0 101137
20:00+1˚se23825 0.0 101243
5 december, sat
sat523:00+1˚se338555 0.0 101359
02:00+1˚se338727 0.0 101363
05:00+1˚se35880 0.0 101399
08:00+1˚se35910 0.0 101480
11:00+5˚se47810 0.0 1014236
14:00+8˚se49760 0.0 1014306
17:00+5˚se511890 0.0 1015224
20:00+4˚se510930 0.0 1016224
6 december, sun
sun623:00+4˚se511934 0.0 1017279
02:00+4˚se6119319 0.0 1017305
05:00+3˚se6139366 0.0 1017348
08:00+4˚se6149161 0.0 1016488
11:00+6˚se8148291 0.0 1016667
14:00+7˚se8147788 0.0 1014637
17:00+5˚se9178388 0.0 1013567
20:00+4˚se9188480 0.0 1014624
7 december, mon
mon723:00+4˚se9178466 0.0 1014601
02:00+4˚se8168558 0.0 1014539
05:00+3˚se8168756 0.0 1013478
08:00+4˚se7168678 0.0 1013539
11:00+6˚se71377100 0.0 1013634
14:00+5˚se51185100 1.5 1013616
17:00+5˚se71386100 1.9 1014565
20:00+4˚se71486100 2.0 1015514